Voltar ao catálogo

KUIPER-00263

AtivoComunicaçõesLEO
NORAD 68586·PAYLOAD·🇺🇸 United States

Lançado Apr 4, 2026 de Cape Canaveral Space Force Station

Loading…

Próximas Passagens (próximas 24 horas)

TLE

AtualizadoSource: CelesTrak SupGP

Época: Sep 14, 2026, 23:06 UTC

1 68586C 26072P   26257.96269676  .00004808  00000+0  62933-3 0  2575
2 68586  51.9001 133.7648 0000820 100.3042  67.0861 14.79931647    13

Acompanhe KUIPER-00263 em tempo real com AllMySat

Download on the App Store